iso_date,epoch_date,Year,Hour,Min,DOY,POS_DOY,Lat,Lon,BP,Ts,Ta,has_bp,has_ts,has_ta,BuoyID,Buoy_Type,Buoy_Owner,Logistics,Hemisphere
2021-08-18T23:22:59Z,1629328980,2021,23,23,230.9743,230.9743,70.06458,-52.36029,-999.00,-999.00,-999.0,no,no,no,4435281,SPIT,USIABP,ICE-PPR<br>DiskoBay,North
2021-08-18T23:34:56Z,1629329697,2021,23,35,230.9826,230.9826,70.06422,-52.36081,-999.00,-999.00,-999.0,no,no,no,4435281,SPIT,USIABP,ICE-PPR<br>DiskoBay,North
2021-08-19T00:05:02Z,1629331502,2021,0,5,231.0035,231.0035,70.05668,-52.34686,-999.00,-999.00,-999.0,no,no,no,4435281,SPIT,USIABP,ICE-PPR<br>DiskoBay,North
2021-08-19T00:33:59Z,1629333239,2021,0,34,231.0236,231.0236,70.06453,-52.36023,-999.00,-999.00,-999.0,no,no,no,4435281,SPIT,USIABP,ICE-PPR<br>DiskoBay,North
2021-08-19T01:02:55Z,1629334976,2021,1,3,231.0437,231.0437,70.0643,-52.36044,-999.00,-999.00,-999.0,no,no,no,4435281,SPIT,USIABP,ICE-PPR<br>DiskoBay,North
2021-08-19T01:34:01Z,1629336842,2021,1,34,231.0653,231.0653,70.06422,-52.36157,-999.00,-999.00,-999.0,no,no,no,4435281,SPIT,USIABP,ICE-PPR<br>DiskoBay,North
2021-08-19T02:02:58Z,1629338579,2021,2,3,231.0854,231.0854,70.06439,-52.36102,-999.00,-999.00,-999.0,no,no,no,4435281,SPIT,USIABP,ICE-PPR<br>DiskoBay,North
2021-08-19T02:32:03Z,1629340324,2021,2,32,231.1056,231.1056,70.06457,-52.3606,-999.00,-999.00,-999.0,no,no,no,4435281,SPIT,USIABP,ICE-PPR<br>DiskoBay,North
2021-08-19T03:02:00Z,1629342121,2021,3,2,231.1264,231.1264,70.06435,-52.3606,-999.00,-999.00,-999.0,no,no,no,4435281,SPIT,USIABP,ICE-PPR<br>DiskoBay,North
2021-08-19T03:32:58Z,1629343979,2021,3,33,231.1479,231.1479,70.06452,-52.36063,-999.00,-999.00,-999.0,no,no,no,4435281,SPIT,USIABP,ICE-PPR<br>DiskoBay,North
2021-08-19T04:02:03Z,1629345724,2021,4,2,231.1681,231.1681,70.06453,-52.36032,-999.00,-999.00,-999.0,no,no,no,4435281,SPIT,USIABP,ICE-PPR<br>DiskoBay,North
2021-08-19T04:32:00Z,1629347521,2021,4,32,231.1889,231.1889,70.06453,-52.36041,-999.00,-999.00,-999.0,no,no,no,4435281,SPIT,USIABP,ICE-PPR<br>DiskoBay,North
2021-08-19T05:00:57Z,1629349258,2021,5,1,231.209,231.209,70.06441,-52.36047,-999.00,-999.00,-999.0,no,no,no,4435281,SPIT,USIABP,ICE-PPR<br>DiskoBay,North
2021-08-19T05:33:56Z,1629351236,2021,5,34,231.2319,231.2319,70.06422,-52.36067,-999.00,-999.00,-999.0,no,no,no,4435281,SPIT,USIABP,ICE-PPR<br>DiskoBay,North
2021-08-19T06:04:01Z,1629353042,2021,6,4,231.2528,231.2528,70.06439,-52.36041,-999.00,-999.00,-999.0,no,no,no,4435281,SPIT,USIABP,ICE-PPR<br>DiskoBay,North
2021-08-19T06:31:58Z,1629354718,2021,6,32,231.2722,231.2722,70.06444,-52.35977,-999.00,-999.00,-999.0,no,no,no,4435281,SPIT,USIABP,ICE-PPR<br>DiskoBay,North
2021-08-19T08:31:03Z,1629361863,2021,8,31,231.3549,231.3549,70.06422,-52.35998,-999.00,-999.00,-999.0,no,no,no,4435281,SPIT,USIABP,ICE-PPR<br>DiskoBay,North
2021-08-19T09:01:00Z,1629363660,2021,9,1,231.3757,231.3757,70.06449,-52.35972,-999.00,-999.00,-999.0,no,no,no,4435281,SPIT,USIABP,ICE-PPR<br>DiskoBay,North
2021-08-19T09:30:57Z,1629365458,2021,9,31,231.3965,231.3965,70.06419,-52.36066,-999.00,-999.00,-999.0,no,no,no,4435281,SPIT,USIABP,ICE-PPR<br>DiskoBay,North
2021-08-19T10:00:02Z,1629367203,2021,10,0,231.4167,231.4167,70.06441,-52.36008,-999.00,-999.00,-999.0,no,no,no,4435281,SPIT,USIABP,ICE-PPR<br>DiskoBay,North
2021-08-19T10:30:00Z,1629369000,2021,10,30,231.4375,231.4375,70.06456,-52.36011,-999.00,-999.00,-999.0,no,no,no,4435281,SPIT,USIABP,ICE-PPR<br>DiskoBay,North
2021-08-19T10:59:57Z,1629370797,2021,11,0,231.4583,231.4583,70.06469,-52.36002,-999.00,-999.00,-999.0,no,no,no,4435281,SPIT,USIABP,ICE-PPR<br>DiskoBay,North
2021-08-19T11:30:02Z,1629372603,2021,11,30,231.4792,231.4792,70.0646,-52.36002,-999.00,-999.00,-999.0,no,no,no,4435281,SPIT,USIABP,ICE-PPR<br>DiskoBay,North
2021-08-19T11:58:59Z,1629374340,2021,11,59,231.4993,231.4993,70.06424,-52.38835,-999.00,-999.00,-999.0,no,no,no,4435281,SPIT,USIABP,ICE-PPR<br>DiskoBay,North
2021-08-19T12:28:56Z,1629376137,2021,12,29,231.5201,231.5201,70.05982,-52.44629,-999.00,-999.00,-999.0,no,no,no,4435281,SPIT,USIABP,ICE-PPR<br>DiskoBay,North
2021-08-19T12:59:02Z,1629377942,2021,12,59,231.541,231.541,70.0742,-52.57495,-999.00,-999.00,-999.0,no,no,no,4435281,SPIT,USIABP,ICE-PPR<br>DiskoBay,North
2021-08-19T13:28:59Z,1629379740,2021,13,29,231.5618,231.5618,70.06277,-52.55869,-999.00,-999.00,-999.0,no,no,no,4435281,SPIT,USIABP,ICE-PPR<br>DiskoBay,North
2021-08-19T14:33:04Z,1629383584,2021,14,33,231.6063,231.6063,70.20329,-53.12311,-999.00,-999.00,-999.0,no,no,no,4435281,SPIT,USIABP,ICE-PPR<br>DiskoBay,North
2021-08-19T15:59:02Z,1629388742,2021,15,59,231.666,231.666,70.30637,-53.70799,-999.00,-999.00,-999.0,no,no,no,4435281,SPIT,USIABP,ICE-PPR<br>DiskoBay,North
2021-08-19T16:28:59Z,1629390540,2021,16,29,231.6868,231.6868,70.31847,-53.80472,-999.00,-999.00,-999.0,no,no,no,4435281,SPIT,USIABP,ICE-PPR<br>DiskoBay,North
2021-08-19T16:58:56Z,1629392337,2021,16,59,231.7076,231.7076,70.31778,-53.81305,-999.00,-999.00,-999.0,no,no,no,4435281,SPIT,USIABP,ICE-PPR<br>DiskoBay,North
2021-08-19T17:28:01Z,1629394082,2021,17,28,231.7278,231.7278,70.28057,-53.55402,-999.00,-999.00,-999.0,no,no,no,4435281,SPIT,USIABP,ICE-PPR<br>DiskoBay,North
2021-08-19T17:57:59Z,1629395879,2021,17,58,231.7486,231.7486,70.24491,-53.26228,-999.00,-999.00,-999.0,no,no,no,4435281,SPIT,USIABP,ICE-PPR<br>DiskoBay,North
2021-08-19T18:27:56Z,1629397676,2021,18,28,231.7694,231.7694,70.20998,-52.96368,-999.00,-999.00,-999.0,no,no,no,4435281,SPIT,USIABP,ICE-PPR<br>DiskoBay,North
2021-08-19T18:58:01Z,1629399482,2021,18,58,231.7903,231.7903,70.19855,-52.86939,-999.00,-999.00,-999.0,no,no,no,4435281,SPIT,USIABP,ICE-PPR<br>DiskoBay,North
2021-08-19T19:27:59Z,1629401279,2021,19,28,231.8111,231.8111,70.11954,-52.73893,-999.00,-999.00,-999.0,no,no,no,4435281,SPIT,USIABP,ICE-PPR<br>DiskoBay,North
2021-08-19T19:57:56Z,1629403076,2021,19,58,231.8319,231.8319,70.07761,-52.52856,-999.00,-999.00,-999.0,no,no,no,4435281,SPIT,USIABP,ICE-PPR<br>DiskoBay,North
2021-08-19T20:28:01Z,1629404882,2021,20,28,231.8528,231.8528,70.06568,-52.366,-999.00,-999.00,-999.0,no,no,no,4435281,SPIT,USIABP,ICE-PPR<br>DiskoBay,North
2021-08-19T20:56:58Z,1629406619,2021,20,57,231.8729,231.8729,70.06601,-52.36531,-999.00,-999.00,-999.0,no,no,no,4435281,SPIT,USIABP,ICE-PPR<br>DiskoBay,North
2021-08-19T21:27:04Z,1629408424,2021,21,27,231.8938,231.8938,70.06598,-52.3654,-999.00,-999.00,-999.0,no,no,no,4435281,SPIT,USIABP,ICE-PPR<br>DiskoBay,North
2021-08-19T21:57:01Z,1629410221,2021,21,57,231.9146,231.9146,70.06637,-52.3642,-999.00,-999.00,-999.0,no,no,no,4435281,SPIT,USIABP,ICE-PPR<br>DiskoBay,North
2021-08-19T22:27:59Z,1629412079,2021,22,28,231.9361,231.9361,70.06583,-52.366,-999.00,-999.00,-999.0,no,no,no,4435281,SPIT,USIABP,ICE-PPR<br>DiskoBay,North
2021-08-19T22:56:55Z,1629413816,2021,22,57,231.9562,231.9562,70.06638,-52.36429,-999.00,-999.00,-999.0,no,no,no,4435281,SPIT,USIABP,ICE-PPR<br>DiskoBay,North
2021-08-19T23:27:01Z,1629415621,2021,23,27,231.9771,231.9771,70.06599,-52.36472,-999.00,-999.00,-999.0,no,no,no,4435281,SPIT,USIABP,ICE-PPR<br>DiskoBay,North
2021-08-19T23:56:58Z,1629417419,2021,23,57,231.9979,231.9979,70.06618,-52.36374,-999.00,-999.00,-999.0,no,no,no,4435281,SPIT,USIABP,ICE-PPR<br>DiskoBay,North
2021-08-20T00:27:04Z,1629419224,2021,0,27,232.0188,232.0188,70.06537,-52.36224,-999.00,-999.00,-999.0,no,no,no,4435281,SPIT,USIABP,ICE-PPR<br>DiskoBay,North
2021-08-20T00:56:00Z,1629420961,2021,0,56,232.0389,232.0389,70.06537,-52.36246,-999.00,-999.00,-999.0,no,no,no,4435281,SPIT,USIABP,ICE-PPR<br>DiskoBay,North
2021-08-20T01:25:58Z,1629422758,2021,1,26,232.0597,232.0597,70.06531,-52.36256,-999.00,-999.00,-999.0,no,no,no,4435281,SPIT,USIABP,ICE-PPR<br>DiskoBay,North
2021-08-20T01:56:03Z,1629424564,2021,1,56,232.0806,232.0806,70.0651,-52.36368,-999.00,-999.00,-999.0,no,no,no,4435281,SPIT,USIABP,ICE-PPR<br>DiskoBay,North
2021-08-20T02:27:01Z,1629426421,2021,2,27,232.1021,232.1021,70.06516,-52.36429,-999.00,-999.00,-999.0,no,no,no,4435281,SPIT,USIABP,ICE-PPR<br>DiskoBay,North
2021-08-20T02:55:58Z,1629428158,2021,2,56,232.1222,232.1222,70.06511,-52.3637,-999.00,-999.00,-999.0,no,no,no,4435281,SPIT,USIABP,ICE-PPR<br>DiskoBay,North
2021-08-20T03:26:03Z,1629429964,2021,3,26,232.1431,232.1431,70.06507,-52.36353,-999.00,-999.00,-999.0,no,no,no,4435281,SPIT,USIABP,ICE-PPR<br>DiskoBay,North
2021-08-20T03:56:00Z,1629431761,2021,3,56,232.1639,232.1639,70.06519,-52.36313,-999.00,-999.00,-999.0,no,no,no,4435281,SPIT,USIABP,ICE-PPR<br>DiskoBay,North
2021-08-20T04:25:58Z,1629433558,2021,4,26,232.1847,232.1847,70.06496,-52.35934,-999.00,-999.00,-999.0,no,no,no,4435281,SPIT,USIABP,ICE-PPR<br>DiskoBay,North
2021-08-20T04:55:03Z,1629435303,2021,4,55,232.2049,232.2049,70.0648,-52.35975,-999.00,-999.00,-999.0,no,no,no,4435281,SPIT,USIABP,ICE-PPR<br>DiskoBay,North
2021-08-20T05:25:00Z,1629437100,2021,5,25,232.2257,232.2257,70.06489,-52.35941,-999.00,-999.00,-999.0,no,no,no,4435281,SPIT,USIABP,ICE-PPR<br>DiskoBay,North
2021-08-20T05:54:57Z,1629438898,2021,5,55,232.2465,232.2465,70.06479,-52.35928,-999.00,-999.00,-999.0,no,no,no,4435281,SPIT,USIABP,ICE-PPR<br>DiskoBay,North
2021-08-20T08:24:00Z,1629447840,2021,8,24,232.35,232.35,70.06477,-52.36006,-999.00,-999.00,-999.0,no,no,no,4435281,SPIT,USIABP,ICE-PPR<br>DiskoBay,North
2021-08-20T08:53:57Z,1629449637,2021,8,54,232.3708,232.3708,70.0648,-52.36023,-999.00,-999.00,-999.0,no,no,no,4435281,SPIT,USIABP,ICE-PPR<br>DiskoBay,North
2021-08-20T09:24:02Z,1629451443,2021,9,24,232.3917,232.3917,70.06483,-52.36227,-999.00,-999.00,-999.0,no,no,no,4435281,SPIT,USIABP,ICE-PPR<br>DiskoBay,North
2021-08-20T10:23:57Z,1629455037,2021,10,24,232.4333,232.4333,70.03922,-52.40066,-999.00,-999.00,-999.0,no,no,no,4435281,SPIT,USIABP,ICE-PPR<br>DiskoBay,North
2021-08-20T10:54:02Z,1629456843,2021,10,54,232.4542,232.4542,69.99918,-52.3653,-999.00,-999.00,-999.0,no,no,no,4435281,SPIT,USIABP,ICE-PPR<br>DiskoBay,North
2021-08-20T11:24:00Z,1629458640,2021,11,24,232.475,232.475,69.97681,-52.3428,-999.00,-999.00,-999.0,no,no,no,4435281,SPIT,USIABP,ICE-PPR<br>DiskoBay,North
2021-08-20T11:53:57Z,1629460437,2021,11,54,232.4958,232.4958,69.97174,-52.29712,-999.00,-999.00,-999.0,no,no,no,4435281,SPIT,USIABP,ICE-PPR<br>DiskoBay,North
2021-08-20T12:24:02Z,1629462243,2021,12,24,232.5167,232.5167,69.96586,-52.2821,-999.00,-999.00,-999.0,no,no,no,4435281,SPIT,USIABP,ICE-PPR<br>DiskoBay,North
2021-08-20T12:52:59Z,1629463980,2021,12,53,232.5368,232.5368,69.98354,-52.25882,-999.00,-999.00,-999.0,no,no,no,4435281,SPIT,USIABP,ICE-PPR<br>DiskoBay,North
2021-08-20T13:53:02Z,1629467582,2021,13,53,232.5785,232.5785,69.98349,-52.27451,-999.00,-999.00,-999.0,no,no,no,4435281,SPIT,USIABP,ICE-PPR<br>DiskoBay,North
2021-08-20T14:22:59Z,1629469380,2021,14,23,232.5993,232.5993,69.98327,-52.28241,-999.00,-999.00,-999.0,no,no,no,4435281,SPIT,USIABP,ICE-PPR<br>DiskoBay,North
2021-08-20T15:52:59Z,1629474780,2021,15,53,232.6618,232.6618,69.9836,-52.30119,-999.00,-999.00,-999.0,no,no,no,4435281,SPIT,USIABP,ICE-PPR<br>DiskoBay,North
2021-08-20T16:22:56Z,1629476577,2021,16,23,232.6826,232.6826,69.98386,-52.30505,-999.00,-999.00,-999.0,no,no,no,4435281,SPIT,USIABP,ICE-PPR<br>DiskoBay,North
2021-08-20T16:52:01Z,1629478322,2021,16,52,232.7028,232.7028,69.98412,-52.3089,-999.00,-999.00,-999.0,no,no,no,4435281,SPIT,USIABP,ICE-PPR<br>DiskoBay,North
2021-08-20T17:21:59Z,1629480119,2021,17,22,232.7236,232.7236,69.98428,-52.31223,-999.00,-999.00,-999.0,no,no,no,4435281,SPIT,USIABP,ICE-PPR<br>DiskoBay,North
2021-08-20T18:22:01Z,1629483722,2021,18,22,232.7653,232.7653,69.98399,-52.31761,-999.00,-999.00,-999.0,no,no,no,4435281,SPIT,USIABP,ICE-PPR<br>DiskoBay,North
2021-08-20T18:51:59Z,1629485519,2021,18,52,232.7861,232.7861,69.98386,-52.31967,-999.00,-999.00,-999.0,no,no,no,4435281,SPIT,USIABP,ICE-PPR<br>DiskoBay,North
2021-08-20T19:52:01Z,1629489122,2021,19,52,232.8278,232.8278,69.98383,-52.3251,-999.00,-999.00,-999.0,no,no,no,4435281,SPIT,USIABP,ICE-PPR<br>DiskoBay,North
2021-08-20T20:21:59Z,1629490919,2021,20,22,232.8486,232.8486,69.98383,-52.3287,-999.00,-999.00,-999.0,no,no,no,4435281,SPIT,USIABP,ICE-PPR<br>DiskoBay,North
2021-08-20T20:51:04Z,1629492664,2021,20,51,232.8688,232.8688,69.98386,-52.33292,-999.00,-999.00,-999.0,no,no,no,4435281,SPIT,USIABP,ICE-PPR<br>DiskoBay,North
2021-08-20T21:21:01Z,1629494461,2021,21,21,232.8896,232.8896,69.98482,-52.33926,-999.00,-999.00,-999.0,no,no,no,4435281,SPIT,USIABP,ICE-PPR<br>DiskoBay,North
2021-08-20T21:50:58Z,1629496259,2021,21,51,232.9104,232.9104,69.98624,-52.34604,-999.00,-999.00,-999.0,no,no,no,4435281,SPIT,USIABP,ICE-PPR<br>DiskoBay,North
2021-08-20T22:20:55Z,1629498056,2021,22,21,232.9312,232.9312,69.98774,-52.35321,-999.00,-999.00,-999.0,no,no,no,4435281,SPIT,USIABP,ICE-PPR<br>DiskoBay,North
2021-08-20T22:51:01Z,1629499861,2021,22,51,232.9521,232.9521,69.9893,-52.36099,-999.00,-999.00,-999.0,no,no,no,4435281,SPIT,USIABP,ICE-PPR<br>DiskoBay,North
2021-08-20T23:50:03Z,1629503404,2021,23,50,232.9931,232.9931,69.99363,-52.38417,-999.00,-999.00,-999.0,no,no,no,4435281,SPIT,USIABP,ICE-PPR<br>DiskoBay,North
2021-08-21T00:20:00Z,1629505201,2021,0,20,233.0139,233.0139,69.99612,-52.39747,-999.00,-999.00,-999.0,no,no,no,4435281,SPIT,USIABP,ICE-PPR<br>DiskoBay,North
2021-08-21T00:49:58Z,1629506998,2021,0,50,233.0347,233.0347,69.99878,-52.41095,-999.00,-999.00,-999.0,no,no,no,4435281,SPIT,USIABP,ICE-PPR<br>DiskoBay,North
2021-08-21T01:20:03Z,1629508804,2021,1,20,233.0556,233.0556,70.0016,-52.42438,-999.00,-999.00,-999.0,no,no,no,4435281,SPIT,USIABP,ICE-PPR<br>DiskoBay,North
2021-08-21T01:50:00Z,1629510601,2021,1,50,233.0764,233.0764,70.00439,-52.4364,-999.00,-999.00,-999.0,no,no,no,4435281,SPIT,USIABP,ICE-PPR<br>DiskoBay,North
2021-08-21T02:19:58Z,1629512398,2021,2,20,233.0972,233.0972,70.00721,-52.44832,-999.00,-999.00,-999.0,no,no,no,4435281,SPIT,USIABP,ICE-PPR<br>DiskoBay,North
2021-08-21T02:50:03Z,1629514204,2021,2,50,233.1181,233.1181,70.00942,-52.45923,-999.00,-999.00,-999.0,no,no,no,4435281,SPIT,USIABP,ICE-PPR<br>DiskoBay,North
2021-08-21T03:20:00Z,1629516001,2021,3,20,233.1389,233.1389,70.0112,-52.46823,-999.00,-999.00,-999.0,no,no,no,4435281,SPIT,USIABP,ICE-PPR<br>DiskoBay,North
2021-08-21T03:48:57Z,1629517738,2021,3,49,233.159,233.159,70.01306,-52.4758,-999.00,-999.00,-999.0,no,no,no,4435281,SPIT,USIABP,ICE-PPR<br>DiskoBay,North
2021-08-21T07:48:00Z,1629532080,2021,7,48,233.325,233.325,70.0145,-52.47394,-999.00,-999.00,-999.0,no,no,no,4435281,SPIT,USIABP,ICE-PPR<br>DiskoBay,North
2021-08-21T09:47:57Z,1629539277,2021,9,48,233.4083,233.4083,70.01218,-52.45645,-999.00,-999.00,-999.0,no,no,no,4435281,SPIT,USIABP,ICE-PPR<br>DiskoBay,North
2021-08-21T10:18:02Z,1629541083,2021,10,18,233.4292,233.4292,70.0117,-52.45541,-999.00,-999.00,-999.0,no,no,no,4435281,SPIT,USIABP,ICE-PPR<br>DiskoBay,North
2021-08-21T10:48:00Z,1629542880,2021,10,48,233.45,233.45,70.01158,-52.45584,-999.00,-999.00,-999.0,no,no,no,4435281,SPIT,USIABP,ICE-PPR<br>DiskoBay,North
2021-08-21T11:17:57Z,1629544677,2021,11,18,233.4708,233.4708,70.01192,-52.45776,-999.00,-999.00,-999.0,no,no,no,4435281,SPIT,USIABP,ICE-PPR<br>DiskoBay,North
2021-08-21T11:47:02Z,1629546422,2021,11,47,233.491,233.491,70.01267,-52.46076,-999.00,-999.00,-999.0,no,no,no,4435281,SPIT,USIABP,ICE-PPR<br>DiskoBay,North
2021-08-21T12:16:59Z,1629548220,2021,12,17,233.5118,233.5118,70.01379,-52.46454,-999.00,-999.00,-999.0,no,no,no,4435281,SPIT,USIABP,ICE-PPR<br>DiskoBay,North
2021-08-21T12:46:56Z,1629550017,2021,12,47,233.5326,233.5326,70.01492,-52.46924,-999.00,-999.00,-999.0,no,no,no,4435281,SPIT,USIABP,ICE-PPR<br>DiskoBay,North
2021-08-21T13:17:02Z,1629551822,2021,13,17,233.5535,233.5535,70.016,-52.4741,-999.00,-999.00,-999.0,no,no,no,4435281,SPIT,USIABP,ICE-PPR<br>DiskoBay,North
2021-08-21T13:46:59Z,1629553620,2021,13,47,233.5743,233.5743,70.01694,-52.47839,-999.00,-999.00,-999.0,no,no,no,4435281,SPIT,USIABP,ICE-PPR<br>DiskoBay,North
2021-08-21T14:16:56Z,1629555417,2021,14,17,233.5951,233.5951,70.01809,-52.48267,-999.00,-999.00,-999.0,no,no,no,4435281,SPIT,USIABP,ICE-PPR<br>DiskoBay,North
2021-08-21T14:46:01Z,1629557162,2021,14,46,233.6153,233.6153,70.01853,-52.48679,-999.00,-999.00,-999.0,no,no,no,4435281,SPIT,USIABP,ICE-PPR<br>DiskoBay,North
2021-08-21T15:15:59Z,1629558959,2021,15,16,233.6361,233.6361,70.01873,-52.49143,-999.00,-999.00,-999.0,no,no,no,4435281,SPIT,USIABP,ICE-PPR<br>DiskoBay,North
2021-08-21T15:45:56Z,1629560756,2021,15,46,233.6569,233.6569,70.01913,-52.49512,-999.00,-999.00,-999.0,no,no,no,4435281,SPIT,USIABP,ICE-PPR<br>DiskoBay,North
2021-08-21T18:15:59Z,1629569759,2021,18,16,233.7611,233.7611,70.01904,-52.49878,-999.00,-999.00,-999.0,no,no,no,4435281,SPIT,USIABP,ICE-PPR<br>DiskoBay,North
2021-08-21T19:15:01Z,1629573301,2021,19,15,233.8021,233.8021,70.018,-52.48933,-999.00,-999.00,-999.0,no,no,no,4435281,SPIT,USIABP,ICE-PPR<br>DiskoBay,North
2021-08-21T19:44:58Z,1629575099,2021,19,45,233.8229,233.8229,70.01701,-52.48264,-999.00,-999.00,-999.0,no,no,no,4435281,SPIT,USIABP,ICE-PPR<br>DiskoBay,North
2021-08-21T20:15:04Z,1629576904,2021,20,15,233.8438,233.8438,70.01581,-52.47766,-999.00,-999.00,-999.0,no,no,no,4435281,SPIT,USIABP,ICE-PPR<br>DiskoBay,North
2021-08-21T20:44:00Z,1629578641,2021,20,44,233.8639,233.8639,70.01483,-52.47413,-999.00,-999.00,-999.0,no,no,no,4435281,SPIT,USIABP,ICE-PPR<br>DiskoBay,North
2021-08-21T21:13:58Z,1629580438,2021,21,14,233.8847,233.8847,70.01439,-52.47207,-999.00,-999.00,-999.0,no,no,no,4435281,SPIT,USIABP,ICE-PPR<br>DiskoBay,North
2021-08-21T21:44:03Z,1629582244,2021,21,44,233.9056,233.9056,70.01461,-52.47147,-999.00,-999.00,-999.0,no,no,no,4435281,SPIT,USIABP,ICE-PPR<br>DiskoBay,North
2021-08-21T22:14:00Z,1629584041,2021,22,14,233.9264,233.9264,70.01532,-52.47189,-999.00,-999.00,-999.0,no,no,no,4435281,SPIT,USIABP,ICE-PPR<br>DiskoBay,North
2021-08-21T22:43:58Z,1629585838,2021,22,44,233.9472,233.9472,70.01627,-52.47329,-999.00,-999.00,-999.0,no,no,no,4435281,SPIT,USIABP,ICE-PPR<br>DiskoBay,North
2021-08-21T23:14:03Z,1629587644,2021,23,14,233.9681,233.9681,70.01756,-52.47604,-999.00,-999.00,-999.0,no,no,no,4435281,SPIT,USIABP,ICE-PPR<br>DiskoBay,North
2021-08-21T23:43:00Z,1629589380,2021,23,43,233.9882,233.9882,70.01875,-52.47958,-999.00,-999.00,-999.0,no,no,no,4435281,SPIT,USIABP,ICE-PPR<br>DiskoBay,North
2021-08-22T00:12:57Z,1629591178,2021,0,13,234.009,234.009,70.01987,-52.48536,-999.00,-999.00,-999.0,no,no,no,4435281,SPIT,USIABP,ICE-PPR<br>DiskoBay,North
2021-08-22T00:43:03Z,1629592983,2021,0,43,234.0299,234.0299,70.02106,-52.49266,-999.00,-999.00,-999.0,no,no,no,4435281,SPIT,USIABP,ICE-PPR<br>DiskoBay,North
2021-08-22T01:13:00Z,1629594780,2021,1,13,234.0507,234.0507,70.02244,-52.50253,-999.00,-999.00,-999.0,no,no,no,4435281,SPIT,USIABP,ICE-PPR<br>DiskoBay,North
2021-08-22T01:42:57Z,1629596578,2021,1,43,234.0715,234.0715,70.02397,-52.51343,-999.00,-999.00,-999.0,no,no,no,4435281,SPIT,USIABP,ICE-PPR<br>DiskoBay,North
2021-08-22T02:13:03Z,1629598383,2021,2,13,234.0924,234.0924,70.02575,-52.5253,-999.00,-999.00,-999.0,no,no,no,4435281,SPIT,USIABP,ICE-PPR<br>DiskoBay,North
2021-08-22T02:42:00Z,1629600120,2021,2,42,234.1125,234.1125,70.02771,-52.53622,-999.00,-999.00,-999.0,no,no,no,4435281,SPIT,USIABP,ICE-PPR<br>DiskoBay,North
2021-08-22T03:12:57Z,1629601978,2021,3,13,234.134,234.134,70.02995,-52.54657,-999.00,-999.00,-999.0,no,no,no,4435281,SPIT,USIABP,ICE-PPR<br>DiskoBay,North
2021-08-22T03:42:02Z,1629603723,2021,3,42,234.1542,234.1542,70.03225,-52.55614,-999.00,-999.00,-999.0,no,no,no,4435281,SPIT,USIABP,ICE-PPR<br>DiskoBay,North
2021-08-22T04:12:00Z,1629605520,2021,4,12,234.175,234.175,70.03462,-52.56404,-999.00,-999.00,-999.0,no,no,no,4435281,SPIT,USIABP,ICE-PPR<br>DiskoBay,North
2021-08-22T04:41:57Z,1629607317,2021,4,42,234.1958,234.1958,70.03677,-52.5697,-999.00,-999.00,-999.0,no,no,no,4435281,SPIT,USIABP,ICE-PPR<br>DiskoBay,North
2021-08-22T05:11:02Z,1629609062,2021,5,11,234.216,234.216,70.03813,-52.57353,-999.00,-999.00,-999.0,no,no,no,4435281,SPIT,USIABP,ICE-PPR<br>DiskoBay,North
2021-08-22T05:40:59Z,1629610860,2021,5,41,234.2368,234.2368,70.03864,-52.57516,-999.00,-999.00,-999.0,no,no,no,4435281,SPIT,USIABP,ICE-PPR<br>DiskoBay,North
2021-08-22T07:10:59Z,1629616260,2021,7,11,234.2993,234.2993,70.03503,-52.57164,-999.00,-999.00,-999.0,no,no,no,4435281,SPIT,USIABP,ICE-PPR<br>DiskoBay,North
2021-08-22T07:40:56Z,1629618057,2021,7,41,234.3201,234.3201,70.03301,-52.56812,-999.00,-999.00,-999.0,no,no,no,4435281,SPIT,USIABP,ICE-PPR<br>DiskoBay,North
2021-08-22T08:11:02Z,1629619862,2021,8,11,234.341,234.341,70.03082,-52.56366,-999.00,-999.00,-999.0,no,no,no,4435281,SPIT,USIABP,ICE-PPR<br>DiskoBay,North
2021-08-22T08:40:59Z,1629621660,2021,8,41,234.3618,234.3618,70.0288,-52.56036,-999.00,-999.00,-999.0,no,no,no,4435281,SPIT,USIABP,ICE-PPR<br>DiskoBay,North
2021-08-22T09:10:56Z,1629623457,2021,9,11,234.3826,234.3826,70.02683,-52.55728,-999.00,-999.00,-999.0,no,no,no,4435281,SPIT,USIABP,ICE-PPR<br>DiskoBay,North
2021-08-22T09:41:02Z,1629625262,2021,9,41,234.4035,234.4035,70.02484,-52.55467,-999.00,-999.00,-999.0,no,no,no,4435281,SPIT,USIABP,ICE-PPR<br>DiskoBay,North
2021-08-22T10:10:59Z,1629627060,2021,10,11,234.4243,234.4243,70.02321,-52.55261,-999.00,-999.00,-999.0,no,no,no,4435281,SPIT,USIABP,ICE-PPR<br>DiskoBay,North
2021-08-22T10:40:56Z,1629628857,2021,10,41,234.4451,234.4451,70.02222,-52.55264,-999.00,-999.00,-999.0,no,no,no,4435281,SPIT,USIABP,ICE-PPR<br>DiskoBay,North
2021-08-22T11:10:01Z,1629630602,2021,11,10,234.4653,234.4653,70.02198,-52.554,-999.00,-999.00,-999.0,no,no,no,4435281,SPIT,USIABP,ICE-PPR<br>DiskoBay,North
2021-08-22T11:39:59Z,1629632399,2021,11,40,234.4861,234.4861,70.02211,-52.55649,-999.00,-999.00,-999.0,no,no,no,4435281,SPIT,USIABP,ICE-PPR<br>DiskoBay,North
2021-08-22T12:09:56Z,1629634196,2021,12,10,234.5069,234.5069,70.0228,-52.56096,-999.00,-999.00,-999.0,no,no,no,4435281,SPIT,USIABP,ICE-PPR<br>DiskoBay,North
2021-08-22T12:40:01Z,1629636002,2021,12,40,234.5278,234.5278,70.02387,-52.56671,-999.00,-999.00,-999.0,no,no,no,4435281,SPIT,USIABP,ICE-PPR<br>DiskoBay,North
2021-08-22T13:09:59Z,1629637799,2021,13,10,234.5486,234.5486,70.02539,-52.57433,-999.00,-999.00,-999.0,no,no,no,4435281,SPIT,USIABP,ICE-PPR<br>DiskoBay,North
2021-08-22T13:39:56Z,1629639596,2021,13,40,234.5694,234.5694,70.02715,-52.58145,-999.00,-999.00,-999.0,no,no,no,4435281,SPIT,USIABP,ICE-PPR<br>DiskoBay,North
2021-08-22T14:10:01Z,1629641402,2021,14,10,234.5903,234.5903,70.02943,-52.58905,-999.00,-999.00,-999.0,no,no,no,4435281,SPIT,USIABP,ICE-PPR<br>DiskoBay,North
2021-08-22T14:39:59Z,1629643199,2021,14,40,234.6111,234.6111,70.03162,-52.59598,-999.00,-999.00,-999.0,no,no,no,4435281,SPIT,USIABP,ICE-PPR<br>DiskoBay,North
2021-08-22T15:09:56Z,1629644996,2021,15,10,234.6319,234.6319,70.03388,-52.60263,-999.00,-999.00,-999.0,no,no,no,4435281,SPIT,USIABP,ICE-PPR<br>DiskoBay,North
2021-08-22T20:37:58Z,1629664678,2021,20,38,234.8597,234.8597,70.03888,-52.6311,-999.00,-999.00,-999.0,no,no,no,4435281,SPIT,USIABP,ICE-PPR<br>DiskoBay,North
2021-08-22T21:38:00Z,1629668281,2021,21,38,234.9014,234.9014,70.03833,-52.63126,-999.00,-999.00,-999.0,no,no,no,4435281,SPIT,USIABP,ICE-PPR<br>DiskoBay,North
2021-08-22T22:07:58Z,1629670078,2021,22,8,234.9222,234.9222,70.03901,-52.6322,-999.00,-999.00,-999.0,no,no,no,4435281,SPIT,USIABP,ICE-PPR<br>DiskoBay,North
2021-08-22T22:38:03Z,1629671884,2021,22,38,234.9431,234.9431,70.03975,-52.63409,-999.00,-999.00,-999.0,no,no,no,4435281,SPIT,USIABP,ICE-PPR<br>DiskoBay,North
2021-08-22T23:08:00Z,1629673681,2021,23,8,234.9639,234.9639,70.04111,-52.63742,-999.00,-999.00,-999.0,no,no,no,4435281,SPIT,USIABP,ICE-PPR<br>DiskoBay,North
2021-08-22T23:36:57Z,1629675418,2021,23,37,234.984,234.984,70.04285,-52.64221,-999.00,-999.00,-999.0,no,no,no,4435281,SPIT,USIABP,ICE-PPR<br>DiskoBay,North
2021-08-23T00:07:03Z,1629677223,2021,0,7,235.0049,235.0049,70.04508,-52.64873,-999.00,-999.00,-999.0,no,no,no,4435281,SPIT,USIABP,ICE-PPR<br>DiskoBay,North
2021-08-23T00:37:00Z,1629679020,2021,0,37,235.0257,235.0257,70.04765,-52.65723,-999.00,-999.00,-999.0,no,no,no,4435281,SPIT,USIABP,ICE-PPR<br>DiskoBay,North